Regional Weather Roundup
Issued by NWS Green Bay, WI

Home | Current Version | Previous Version | Graphics & Text | Print | Product List | Glossary Off
Versions: 1 2 3 4 5 6 7 8 9 10 11 12 13 14 15 16 17 18 19 20 21 22 23 24 25 26 27 28 29 30 31 32 33 34 35 36 37 38 39 40 41 42 43 44 45 46 47 48 49 50

000
ASUS43 KGRB 060311
RWRGRB

NORTH-CENTRAL AND NORTHEAST WISCONSIN REGIONAL WEATHER ROUNDUP
NATIONAL WEATHER SERVICE GREEN BAY WI
1000 PM CDT SUN JUL 05 2015

WIZ005-009-010>012-018-019-060400-
NORTH CENTRAL WISCONSIN

CITY           SKY/WX    TMP DP  RH WIND       PRES   REMARKS
IRONWOOD       PTCLDY    75  64  69 S14G26    29.80R
MANITOWISH WTR PTCLDY    71  64  76 S9        29.88F
ARBOR VITAE    PTCLDY    72  63  72 S8        29.90R
EAGLE RIVER    PTCLDY    72  59  64 S6        29.90F
LAND O LAKES   PTCLDY    73  61  66 S7        29.91R
RHINELANDER    PTCLDY    73  61  65 S8G18     29.91F
PHILLIPS       PTCLDY    71  64  77 S8        29.88S
ANTIGO         CLEAR     66  63  87 S7        29.95S
TOMAHAWK       PTCLDY    69  62  79 S3        29.91S
MERRILL        PTCLDY    73  64  74 S7        29.92F
$$

WIZ013-073-060400-
NORTHEAST WISCONSIN

CITY           SKY/WX    TMP DP  RH WIND       PRES   REMARKS
IRON MOUNTAIN  CLEAR     71  62  73 S6        29.91F
MARINETTE      CLEAR     70  59  68 S13       29.93F
OCONTO         CLEAR     71  64  79 S6        29.93F
$$

WIZ017-030-035>037-045-060400-
CENTRAL WISCONSIN

CITY           SKY/WX    TMP DP  RH WIND       PRES   REMARKS
MEDFORD        PTCLDY    69  64  83 S8        29.90F
WAUSAU         PTCLDY    74  63  68 S9        29.91F
MOSINEE        CLEAR     72  64  78 S8        29.94F
MARSHFIELD     PTCLDY    72  62  71 S8        29.93S
WISC RAPIDS    PTCLDY    74  62  66 S7        29.94F
STEVENS POINT  CLEAR     71  62  73 S7        29.94S
WAUPACA        CLEAR     72  65  79 S3        29.95S
SHAWANO        CLEAR     75  64  67 S5        29.94S
CLINTONVILLE   CLEAR     72  63  73 S5        29.94S
$$

WIZ038-039-048-051-060400-
FOX VALLEY

CITY           SKY/WX    TMP DP  RH WIND       PRES   REMARKS
NWS GREEN BAY  CLEAR     71  62  73 S9        29.95F
APPLETON       PTCLDY    73  61  64 S8        29.96F
OSHKOSH        CLEAR     67  62  84 S6        29.96F
FOND DU LAC    CLEAR     70  63  78 S9        29.97S
$$

WIZ022-050-052-060400-
EAST CENTRAL WISCONSIN

CITY           SKY/WX    TMP DP  RH WIND       PRES   REMARKS
STURGEON BAY   CLEAR     66  57  72 S10       29.99F
MANITOWOC      CLEAR     66  60  81 MISG      29.99S
SHEBOYGAN      CLEAR     68  59  73 S8        30.00R
$$

LMZ563-521-522-541>543-060400-
LAKESHORE

STATION/POSITION TIME  TEMP    WIND        PRES    VSBY  WAVE
                       AIR SEA DIR/SP/G                  HT/PER
                 (UTC) (F)     (DEG/KT/KT) (MB)    (MI)  (FT/S)
SHEBOYGAN LKSHOR 0300   67     190/ 15/ 16 1015.9R
KEWAUNEE LKSHORE 0200   64     170/  9/ 11 1014.6F
ALGOMA MARINA    0211          210/  9/ 11   N/A
NORTHPORT PIER   0200   67     160/  6/ 11 1014.9R
N MID LAKE BUOY  0250   56 47  200/ 12/ 14 1015.2R         2/ 4
S GREEN BAY BUOY 0300   72 70  170/ 16/ 21 1015.2
CHAMBERS ISLAND  0200   71     160/  7/ 13 1014.2S
MENOMINEE LKSHOR 0200   72     170/ 10/ 13 1014.9R
$$


USA.gov is the U.S. government's official web portal to all federal, state and local government web resources and services.